Weather History for Lakeland Region, FL

Change the Weather History Date:

Thursday, July 18, 2013

  Actual Average Record
Temperature  
Mean Temperature 79 °F -  
Max Temperature 87 °F 88 °F 95 °F (1997)
Min Temperature 71 °F 71 °F 71 °F (1997)
Cooling Degree Days 14    
Growing Degree Days 29 (Base 50)    
Moisture  
Dew Point 71 °F    
Average Humidity 89    
Maximum Humidity 100    
Minimum Humidity 52    
Precipitation  
Precipitation 0.00 in - - ()
Sea Level Pressure  
Sea Level Pressure 30.11 in    
Wind  
Wind Speed 4 mph (ENE)    
Max Wind Speed 14 mph    
Max Gust Speed 20 mph    
Visibility 11 miles    
Events Rain    
Averages and records for this station are not official NWS values.
T = Trace of Precipitation, MM = Missing Value Source: NWS Daily Summary

Daily Weather History Graph

Daily Weather History Graph

Search for Another Location

Airport:

Trip Planner

Search our weather history database for the weather conditions in past years. The results will help you decide how hot, cold, wet, or windy it might be!

Date:

Astronomy

Jul. 18, 2013 Rise Set
Actual Time 6:43 AM EDT 8:25 PM EDT
Civil Twilight 6:17 AM EDT 8:51 PM EDT
Nautical Twilight 5:45 AM EDT 9:22 PM EDT
Astronomical Twilight 5:12 AM EDT 9:55 PM EDT
Moon 4:23 PM EDT (7/18) 2:27 AM EDT (7/18)
Length of Visible Light 14h 34m
Length of Day
13h 41m
Waxing Gibbous, 77% of the Moon is Illuminated
Jul 18
Waxing Gibbous
Jul 22
Full
Jul 29
Last Quarter
Aug 6
New
Aug 14
First Quarter

Hourly Weather History & Observations

Time (EDT) Temp. Heat Index Dew Point Humidity Pressure Visibility Wind Dir Wind Speed Gust Speed Precip Events Conditions
12:15 AM 73.4 °F - 69.8 °F 88% 30.13 in 10.0 mi East 4.6 mph - N/A   Clear
12:35 AM 73.4 °F - 69.8 °F 88% 30.13 in 10.0 mi East 5.8 mph - N/A   Clear
12:55 AM 73.4 °F - 69.8 °F 88% 30.12 in 10.0 mi East 4.6 mph - N/A   Clear
1:15 AM 71.6 °F - 69.8 °F 94% 30.12 in 10.0 mi Calm Calm - N/A   Clear
1:35 AM 71.6 °F - 69.8 °F 94% 30.11 in 10.0 mi ESE 3.5 mph - N/A   Clear
1:55 AM 71.6 °F - 69.8 °F 94% 30.12 in 10.0 mi Calm Calm - N/A   Clear
2:15 AM 71.6 °F - 69.8 °F 94% 30.12 in 10.0 mi NNE 3.5 mph - N/A   Clear
2:35 AM 71.6 °F - 69.8 °F 94% 30.11 in 10.0 mi Calm Calm - N/A   Clear
2:55 AM 71.6 °F - 69.8 °F 94% 30.11 in 10.0 mi NE 3.5 mph - N/A   Clear
3:15 AM 71.6 °F - 69.8 °F 94% 30.11 in 10.0 mi Calm Calm - N/A   Clear
3:35 AM 71.6 °F - 69.8 °F 94% 30.11 in - Calm Calm - N/A   Unknown
3:55 AM 71.6 °F - 69.8 °F 94% 30.10 in 10.0 mi Calm Calm - N/A   Clear
4:15 AM 71.6 °F - 69.8 °F 94% 30.10 in - NE 3.5 mph - N/A   Unknown
4:35 AM 71.6 °F - 69.8 °F 94% 30.10 in 10.0 mi NNE 3.5 mph - N/A   Clear
4:55 AM 71.6 °F - 69.8 °F 94% 30.10 in 10.0 mi NNE 3.5 mph - N/A   Scattered Clouds
5:15 AM 71.6 °F - 69.8 °F 94% 30.10 in 10.0 mi NE 4.6 mph - N/A   Scattered Clouds
5:35 AM 71.6 °F - 69.8 °F 94% 30.10 in - ENE 3.5 mph - N/A   Unknown
5:50 AM 71.6 °F - 71.6 °F 100% 30.11 in 12.0 mi NE 3.5 mph - N/A   Scattered Clouds
5:55 AM 71.6 °F - 69.8 °F 94% 30.11 in 10.0 mi NE 3.5 mph - N/A   Clear
6:15 AM 71.6 °F - 69.8 °F 94% 30.11 in 10.0 mi NE 4.6 mph - N/A   Clear
6:35 AM 71.6 °F - 69.8 °F 94% 30.11 in - ENE 4.6 mph - N/A   Unknown
6:50 AM 73.4 °F - 71.6 °F 94% 30.12 in 12.0 mi ENE 5.8 mph - N/A   Mostly Cloudy
7:50 AM 73.4 °F - 71.6 °F 94% 30.13 in 12.0 mi NE 4.6 mph - N/A   Mostly Cloudy
8:50 AM 77.0 °F - 73.4 °F 89% 30.14 in 15.0 mi East 6.9 mph - N/A   Mostly Cloudy
9:50 AM 80.6 °F 84.6 °F 71.6 °F 74% 30.14 in 15.0 mi East 10.4 mph - N/A   Mostly Cloudy
11:50 AM 84.2 °F 88.4 °F 69.8 °F 62% 30.13 in 15.0 mi East 9.2 mph - N/A   Mostly Cloudy
12:50 PM 82.4 °F 86.3 °F 69.8 °F 66% 30.13 in 15.0 mi ESE 8.1 mph - N/A   Overcast
1:50 PM 84.2 °F 88.4 °F 69.8 °F 62% 30.11 in 15.0 mi East 8.1 mph - N/A   Overcast
2:50 PM 86.0 °F 89.4 °F 68.0 °F 55% 30.09 in 15.0 mi East 4.6 mph - N/A   Mostly Cloudy
3:50 PM 87.8 °F 91.4 °F 68.0 °F 52% 30.07 in 15.0 mi ENE 4.6 mph - N/A   Mostly Cloudy
4:50 PM 78.8 °F - 71.6 °F 78% 30.08 in 5.0 mi South 13.8 mph 19.6 mph N/A Rain Rain
5:50 PM 75.2 °F - 71.6 °F 89% 30.08 in 7.0 mi Calm Calm - N/A   Overcast
6:50 PM 75.2 °F - 73.4 °F 94% 30.08 in 7.0 mi Calm Calm - N/A   Overcast
7:50 PM 75.2 °F - 73.4 °F 94% 30.09 in 7.0 mi Calm Calm - N/A   Mostly Cloudy
8:50 PM 75.2 °F - 73.4 °F 94% 30.10 in 7.0 mi Calm Calm - N/A   Mostly Cloudy
9:50 PM 73.4 °F - 71.6 °F 94% 30.11 in 7.0 mi Calm Calm - N/A   Mostly Cloudy
10:55 PM 73.4 °F - 71.6 °F 94% 30.11 in 10.0 mi Calm Calm - N/A   Clear
11:15 PM 71.6 °F - 71.6 °F 100% 30.12 in - South 4.6 mph - N/A   Unknown
11:35 PM 71.6 °F - 71.6 °F 100% 30.12 in 10.0 mi South 4.6 mph - N/A   Clear
11:55 PM 71.6 °F - 69.8 °F 94% 30.12 in 10.0 mi South 3.5 mph - N/A   Clear